SCP
0 0 0 0 0 0 0 0 0 0 0 0 0 0 0 0 0 0 -0 -0 -0 0 0 0 0 0 0 0 0 0 1 0 0 0 0 0 0 0 0 0 0 0 0 0 0 0 0
0 0 0 0 0 0 0 0 0 0 0 0 0 0 0 0 -0 -0 -0 -0 -0 -0 0 0 0 0 0 0 0 0 0 0 0 0 0 0 0 0 0 0 0 0 0 0 0 0 0
0 0 0 0 0 0 0 0 0 0 0 0 0 0 0 0 -0 0 -0 -0 -0 0 -0 0 0 0 0 0 0 0 0 0 0 0 0 0 0 0 0 0 0 0 0 0 0 0 0
0 0 0 0 0 0 -0 0 0 0 0 0 0 0 0 0 -0 0 -0 -0 -0 0 0 0 0 0 0 0 0 -0 0 0 0 0 0 0 0 0 0 0 0 0 0 0 0 0 0
0 0 0 0 0 0 0 -0 -0 -0 0 0 0 0 0 0 -0 -0 -0 0 0 0 0 -0 -0 0 0 0 0 0 0 0 0 0 0 0 0 0 0 0 0 0 0 0 0 0 0
0 0 0 0 0 0 0 -0 -0 -0 0 0 0 0 0 0 0 0 0 0 0 0 0 -0 0 0 0 0 0 0 0 0 0 0 0 0 0 0 0 0 0 0 0 0 0 0 0
0 0 0 0 0 0 0 -0 -0 -0 0 0 0 0 0 0 0 0 0 0 0 -0 0 0 0 0 0 0 0 -0 0 0 0 0 0 0 0 0 0 0 0 0 0 0 0 0 0
0 0 0 0 0 0 0 -0 -0 -0 -0 0 0 0 0 0 0 0 0 0 -0 0 0 0 0 0 0 0 0 0 0 0 0 0 0 0 0 0 0 0 0 0 0 0 0 0 0
0 0 0 0 0 0 0 -0 -0 -0 -0 0 0 0 0 0 0 0 0 0 0 0 0 0 0 0 0 0 0 0 0 0 0 0 0 0 0 0 0 0 0 0 0 0 0 0 0
0 0 0 0 0 0 -0 0 -0 -0 -0 -0 0 0 0 0 0 0 0 0 0 0 0 0 0 0 0 0 0 0 0 0 0 0 0 0 0 0 0 0 0 0 0 0 0 0 0
0 0 0 0 0 -0 -0 0 0 0 0 0 0 0 0 0 0 0 -0 0 0 0 0 0 0 0 0 0 0 0 0 0 0 0 0 0 0 0 0 0 0 0 0 0 0 0 0
0 0 0 0 -0 0 0 -0 0 0 0 0 0 0 0 0 0 0 0 0 0 0 0 0 0 0 0 0 0 -0 0 0 0 0 0 0 0 0 0 0 0 0 0 0 0 0 0
0 0 0 0 0 -0 0 -0 -0 -0 -0 -0 0 0 0 0 0 0 0 0 0 0 0 0 0 0 0 0 0 0 0 0 0 0 0 0 0 0 0 0 0 0 0 0 0 0 0
0 0 0 0 0 -0 0 -0 -0 -0 -0 -0 -0 0 0 0 0 0 0 0 0 0 0 0 0 0 0 0 0 0 -0 0 0 0 0 0 0 0 0 0 0 0 0 0 0 0 0
0 0 0 0 0 0 -0 -0 -0 -0 -0 -0 -0 0 0 0 0 -0 0 0 0 0 0 0 -0 0 0 0 0 0 0 0 0 0 0 0 0 0 0 0 0 0 0 0 0 0 0
0 0 0 0 0 0 0 -0 -0 -0 -0 -0 -0 0 0 0 0 0 0 0 0 0 0 0 0 0 0 0 0 0 0 0 0 0 0 0 0 0 0 0 0 0 0 0 0 0 0
0 0 0 0 0 -0 0 -0 -0 -0 -0 -0 -0 -0 0 0 0 0 0 0 0 0 0 0 0 0 0 0 0 0 0 0 0 0 0 0 0 0 0 0 0 0 0 0 0 0 0
0 0 0 0 0 -0 0 0 -0 -0 -0 0 -0 -0 0 0 0 0 0 -0 0 0 0 0 0 0 0 0 0 0 0 0 0 0 0 0 0 0 0 0 0 0 0 0 0 0 0
0 0 0 0 0 0 0 0 -0 -0 -0 0 0 0 -0 -0 0 -0 0 -0 0 0 0 0 0 0 0 0 0 0 0 0 0 0 0 0 0 0 0 0 0 0 0 0 0 0 0
0 0 0 0 0 0 0 0 0 -0 -0 -0 0 0 0 -0 0 0 0 0 -0 -0 0 0 0 0 0 0 0 0 0 0 0 0 0 0 0 0 0 0 0 0 0 0 0 0 0
0 0 0 0 0 0 0 0 0 -0 -0 -0 0 0 0 -0 0 0 0 0 -0 -0 0 0 0 0 0 0 0 0 0 0 0 0 0 0 0 0 0 0 0 0 0 0 0 0 0
0 0 0 0 0 0 0 0 0 -0 -0 0 0 0 0 0 0 0 0 -0 0 0 0 0 0 0 0 0 0 0 0 0 0 0 0 0 0 0 0 0 0 0 0 0 0 0 0
0 0 0 0 0 0 0 0 0 0 0 0 0 0 0 0 0 -0 0 0 0 -0 -0 -0 0 0 0 0 0 0 0 0 0 0 0 0 0 0 0 0 0 0 -0 -0 0 0 0
0 0 0 0 0 0 0 0 0 0 0 0 0 0 0 0 0 0 0 0 0 0 0 0 0 0 0 0 0 0 0 0 0 0 0 0 0 0 0 0 0 0 0 0 -0 0 0
0 0 0 0 0 0 0 0 0 0 0 0 0 0 0 0 0 0 0 0 0 0 -0 0 0 0 0 0 0 0 0 0 0 0 0 0 0 0 0 0 0 0 0 0 0 0 0
0 0 0 0 0 0 0 0 0 0 0 0 0 0 0 0 0 0 0 0 0 -0 0 0 0 0 0 0 0 0 0 0 0 0 0 0 0 0 0 0 0 0 0 0 0 0 0
0 0 0 0 0 0 0 0 0 0 0 0 0 0 0 0 0 0 0 0 0 0 0 0 0 0 0 0 -0 0 0 0 0 0 0 0 0 0 0 0 0 0 0 0 0 0 0
0 0 0 0 0 0 0 0 0 0 0 0 0 0 0 0 0 0 0 0 0 0 0 0 0 0 0 -0 0 0 -0 0 0 0 0 0 0 0 0 0 0 0 0 0 0 0 0
0 0 0 0 0 0 0 -0 0 0 0 0 0 0 -0 -0 0 0 0 0 0 0 0 0 0 0 0 0 0 0 0 0 0 -0 0 0 0 0 0 0 0 0 0 0 0 0 0
Wind_Speed_500mb
43 46 49 50 50 48 48 53 54 55 53 53 52 52 46 36 29 27 23 22 21 16 16 17 18 25 17 26 36 15 40 33 48 45 45 39 56 50 37 39 34 31 19 39 19 14 21
43 47 52 48 51 51 48 51 56 56 56 59 57 52 47 40 29 26 22 20 15 14 15 14 12 20 22 29 18 20 32 25 52 50 52 49 51 49 27 19 39 25 31 24 26 19 17
45 47 46 51 54 45 56 54 50 55 59 61 55 54 44 33 25 21 22 17 12 13 13 11 12 15 25 34 13 41 24 12 43 57 55 49 37 46 14 15 29 30 33 17 32 28 13
48 47 47 52 52 48 53 45 58 57 60 62 60 57 45 26 23 20 19 16 15 19 17 9 16 13 21 29 35 24 35 20 23 55 47 41 34 44 14 11 21 24 24 27 25 26 19
50 47 50 51 48 48 49 54 51 54 59 61 59 55 34 16 11 18 10 10 17 21 19 11 13 14 17 11 36 39 30 22 24 47 42 34 30 42 21 24 23 25 24 36 26 40 20
51 46 49 53 51 51 47 47 48 52 54 61 59 54 32 7 7 8 7 6 6 10 14 9 7 10 25 19 31 32 26 27 41 45 37 28 23 24 24 27 30 36 38 37 34 20 31
53 48 47 53 50 49 45 44 48 50 52 57 63 51 30 10 5 9 4 2 3 6 14 2 5 17 13 20 28 28 26 30 47 47 24 33 16 37 51 46 33 25 35 32 24 15 16
52 50 49 52 50 49 48 44 45 48 48 52 58 50 34 13 5 8 4 5 12 6 3 7 12 16 21 14 25 27 22 9 33 33 34 15 18 36 38 37 33 18 27 29 8 19 11
50 52 50 51 54 50 49 43 43 45 38 43 48 47 31 28 7 5 8 5 5 6 5 9 6 14 12 11 21 21 13 10 19 43 38 30 14 31 31 31 26 26 27 26 12 18 16
47 52 53 53 55 52 51 46 48 42 27 32 36 39 33 11 10 16 9 10 7 4 4 3 5 4 3 14 10 27 14 7 5 34 32 17 15 29 35 37 31 24 8 13 11 19 12
44 50 55 54 54 54 53 53 46 46 34 25 26 28 26 18 2 9 10 7 5 4 4 4 7 5 13 8 28 15 26 13 6 17 6 10 30 34 32 34 30 8 20 15 6 9 8
40 47 53 55 56 56 56 54 54 48 42 36 28 19 18 12 8 3 5 1 6 7 16 10 6 7 14 13 8 13 10 15 14 13 18 7 10 7 5 5 15 26 25 15 6 2 8
38 43 49 54 59 59 57 57 56 53 51 40 27 14 11 9 8 14 14 6 5 12 3 12 8 8 10 8 8 12 11 9 9 9 7 8 8 7 3 21 16 17 26 9 9 7 8
35 39 44 50 55 56 60 60 61 57 53 41 19 10 15 9 10 4 4 4 18 10 15 8 10 18 8 4 9 1 12 13 7 12 6 5 5 5 9 5 13 24 31 5 13 11 14
33 37 42 45 53 59 60 65 65 63 54 40 16 8 15 19 7 7 4 12 6 4 2 9 15 10 7 10 9 6 3 8 10 5 4 8 8 2 5 6 7 7 13 4 5 4 3
28 34 41 41 48 60 65 66 67 66 58 40 16 10 9 16 9 12 3 7 3 2 4 8 3 7 13 10 6 8 4 5 7 5 7 8 12 12 17 14 0 7 7 5 3 7 9
29 32 39 45 48 53 61 68 66 67 62 38 9 8 14 12 12 4 7 3 8 4 4 6 4 4 6 7 4 4 3 7 2 5 2 7 7 9 10 14 18 10 8 6 5 5 6
30 33 35 41 53 54 60 67 68 61 60 37 9 5 17 7 2 2 7 7 3 5 3 3 4 5 7 9 8 4 5 5 6 3 5 6 8 8 4 4 7 10 12 18 7 9 1
31 32 35 41 48 57 58 65 67 54 53 41 19 9 11 2 1 5 7 9 2 2 5 4 3 3 3 8 5 8 6 4 4 1 4 8 7 8 5 6 6 11 17 15 3 6 9
29 33 36 41 43 52 59 62 62 47 42 26 11 6 2 1 4 4 9 7 8 4 1 1 5 4 10 8 3 9 10 5 2 4 8 1 5 4 3 6 5 10 21 23 16 7 9
29 34 37 39 42 50 55 55 55 43 33 16 7 4 5 4 3 2 4 2 7 8 5 6 6 8 6 6 7 7 10 10 5 5 3 4 3 3 4 2 4 7 13 26 26 22 12
29 33 36 42 48 37 43 52 55 41 27 13 11 9 13 10 8 8 4 4 3 3 5 7 7 10 9 3 4 9 15 14 12 16 11 6 5 3 5 5 11 18 22 22 29 31 33
28 29 35 39 37 31 36 45 52 46 32 14 14 11 8 3 4 9 3 4 2 3 2 6 2 6 8 4 3 4 6 6 2 11 17 11 9 5 3 1 10 19 38 38 30 22 31
20 27 33 34 32 31 34 41 42 48 39 20 17 10 7 4 7 6 8 6 5 2 4 6 4 5 5 11 14 12 8 7 8 6 11 12 11 6 1 4 9 2 5 4 37 25 30
16 22 27 33 33 31 25 35 35 39 39 21 26 10 8 8 12 15 8 11 12 10 7 7 1 4 13 5 7 8 7 8 8 7 12 13 13 5 5 9 21 20 12 10 16 15 37
9 17 26 28 27 31 29 27 33 26 31 24 24 21 5 13 7 10 11 7 11 12 7 7 2 8 10 3 4 7 8 7 8 10 8 12 14 8 7 6 7 8 7 8 7 6 15
9 19 29 34 27 30 31 31 24 28 27 25 19 22 7 9 9 8 6 7 9 12 8 3 8 8 7 9 8 6 8 1 8 10 11 15 12 18 15 9 13 1 12 10 6 8 16
13 21 30 27 30 27 26 30 27 23 23 25 17 19 16 10 28 16 13 17 14 12 10 8 6 9 9 12 8 8 14 13 10 11 13 19 12 11 14 10 15 15 13 7 14 13 10
13 26 31 28 17 17 24 27 29 25 22 20 19 27 22 17 25 42 43 36 29 22 11 8 10 7 5 10 11 8 9 5 14 10 16 11 13 7 13 8 7 17 9 11 8 8 4
Wind_Direction_500mb
350 347 344 347 343 343 340 337 334 332 332 329 323 319 319 312 302 295 295 296 308 299 294 275 249 228 228 232 244 218 194 198 190 186 193 193 192 190 204 205 210 219 227 221 252 170 216
352 347 348 348 345 343 341 342 342 335 332 330 324 314 305 306 300 286 289 289 286 282 288 280 251 216 216 239 243 234 161 184 191 186 191 197 201 192 220 208 211 210 228 215 209 196 198
357 349 345 347 343 349 343 342 340 337 337 337 337 330 314 296 287 274 287 257 266 275 289 267 235 219 231 228 201 217 187 149 199 190 189 193 197 198 210 197 203 253 208 214 210 197 209
354 349 348 350 345 348 340 357 345 345 341 342 340 339 323 277 275 260 279 254 270 271 272 260 221 232 249 237 233 228 219 208 187 181 187 189 202 197 228 190 185 202 213 211 207 211 220
355 350 351 344 347 351 354 348 346 350 346 348 347 348 340 318 255 282 226 264 296 279 261 218 199 214 248 232 215 203 205 198 182 169 182 185 204 196 193 189 184 205 204 210 206 197 192
359 352 349 350 352 351 349 346 351 354 352 351 354 353 353 290 290 190 180 312 358 75 126 159 234 212 242 221 180 187 189 190 175 165 169 183 200 199 198 198 200 197 216 204 204 189 223
0 354 349 353 352 351 348 351 355 353 355 357 5 8 16 28 198 163 129 52 183 152 186 322 329 228 69 149 161 159 167 184 169 166 178 177 190 197 196 205 215 215 204 239 208 139 204
359 356 352 354 355 352 349 354 356 353 356 4 10 14 25 26 154 146 99 11 28 9 186 294 301 286 287 273 168 145 151 170 175 174 172 167 212 207 202 208 214 244 194 205 165 152 209
358 356 353 355 356 352 350 352 356 354 4 10 15 15 17 44 106 127 93 58 95 49 34 3 0 285 287 187 155 136 151 85 199 178 182 184 189 217 198 206 192 201 200 198 234 182 221
358 355 353 355 360 354 350 350 351 351 1 7 14 20 20 11 20 85 88 145 130 359 176 3 343 324 221 160 89 108 120 114 325 184 178 186 203 192 192 191 196 186 197 162 174 193 218
356 355 353 354 359 360 352 349 348 347 341 345 359 18 10 24 52 111 153 140 143 311 116 87 247 153 147 168 136 100 102 161 84 115 149 180 188 192 185 190 188 142 149 145 174 239 303
355 354 354 357 358 1 359 351 347 346 343 337 328 344 2 340 352 65 111 97 309 239 32 35 59 82 105 110 58 98 51 109 86 61 65 24 47 8 356 88 187 135 126 113 106 266 244
353 355 353 359 2 360 1 358 350 347 343 343 335 331 345 353 289 282 265 314 247 36 301 347 47 95 78 86 94 120 178 133 113 130 158 24 24 26 346 108 135 164 171 152 193 196 235
348 352 353 358 1 1 0 360 356 350 345 344 340 351 359 347 306 6 37 267 50 355 68 220 101 90 70 74 30 76 156 114 134 95 105 123 131 38 309 115 177 188 198 247 208 195 175
346 349 351 360 360 5 4 359 358 354 345 346 336 341 356 350 337 112 239 50 30 296 47 142 157 104 108 114 137 162 344 74 119 207 105 149 87 120 300 106 151 181 211 13 304 65 200
341 347 345 356 2 358 360 4 354 354 351 345 337 294 311 360 32 87 25 88 160 260 10 328 49 289 138 115 138 139 145 47 96 48 315 102 109 146 133 113 227 243 181 180 213 206 215
334 343 345 347 356 358 354 354 359 348 352 346 359 293 323 345 56 60 78 78 119 42 345 340 51 125 88 130 162 82 44 113 41 77 9 112 107 139 158 209 166 164 205 226 288 290 285
331 339 343 346 346 353 352 350 356 349 349 359 358 278 328 358 297 128 121 164 314 356 355 60 91 74 157 160 156 150 140 44 95 136 112 33 95 140 150 94 315 316 240 206 228 193 274
332 330 339 342 342 343 349 345 347 350 350 350 321 285 311 218 261 105 132 143 264 244 30 10 75 21 177 157 150 139 133 26 76 11 133 159 133 124 181 201 197 226 223 234 268 340 205
326 326 332 336 342 339 342 342 342 349 345 349 321 317 294 66 11 178 176 167 179 181 185 21 119 164 162 159 10 158 140 129 121 53 48 42 161 292 260 60 115 198 213 212 194 209 209
326 330 330 337 340 339 344 349 347 350 348 5 348 12 337 310 122 212 226 186 221 205 206 207 175 252 203 167 174 160 140 143 169 148 139 279 189 83 284 63 144 232 217 210 213 220 233
326 332 336 343 345 349 353 357 357 2 4 53 11 355 329 290 296 236 166 185 243 167 252 182 256 185 196 224 251 179 187 188 184 182 197 177 153 133 273 231 251 257 247 236 227 228 246
336 340 349 355 359 360 352 359 4 9 22 54 16 346 328 319 263 267 175 148 150 314 163 267 140 198 203 65 38 351 156 213 197 192 199 194 155 184 236 212 282 264 233 220 219 215 222
341 352 1 360 358 353 353 357 7 13 24 33 22 11 322 300 264 304 339 340 231 246 326 150 279 252 99 116 113 114 116 142 148 169 200 193 176 164 311 253 240 32 67 242 220 225 218
343 9 0 2 1 350 346 350 357 3 16 26 23 29 344 291 322 273 294 301 281 246 239 231 157 101 140 169 151 161 174 184 175 195 204 217 186 194 232 240 292 263 185 180 181 243 220
336 347 353 346 347 346 352 336 345 354 4 22 20 21 355 311 61 347 314 311 293 230 197 194 130 160 171 250 255 239 219 209 180 174 206 214 230 226 164 258 261 51 146 174 194 232 181
316 320 327 340 338 336 338 343 318 345 344 -0 11 14 16 291 306 309 300 301 315 300 289 112 171 177 203 215 227 243 256 240 213 202 184 194 211 225 228 254 282 74 148 168 220 104 114
315 314 327 341 333 337 350 356 343 332 334 334 329 353 1 297 287 266 261 268 280 266 279 69 195 199 193 227 223 196 250 202 249 214 185 188 197 206 222 229 263 138 144 229 108 115 127
320 320 327 340 344 353 346 336 342 348 333 328 331 330 330 292 266 281 276 253 245 256 284 276 334 303 287 237 222 220 213 219 231 229 196 219 214 203 220 223 109 186 233 151 131 120 150
Wind_Speed_850mb
43 46 49 50 50 48 48 53 54 55 53 53 52 52 46 36 29 27 23 22 21 16 16 17 18 25 17 26 36 15 40 33 48 45 45 39 56 50 37 39 34 31 19 39 19 14 21
43 47 52 48 51 51 48 51 56 56 56 59 57 52 47 40 29 26 22 20 15 14 15 14 12 20 22 29 18 20 32 25 52 50 52 49 51 49 27 19 39 25 31 24 26 19 17
45 47 46 51 54 45 56 54 50 55 59 61 55 54 44 33 25 21 22 17 12 13 13 11 12 15 25 34 13 41 24 12 43 57 55 49 37 46 14 15 29 30 33 17 32 28 13
48 47 47 52 52 48 53 45 58 57 60 62 60 57 45 26 23 20 19 16 15 19 17 9 16 13 21 29 35 24 35 20 23 55 47 41 34 44 14 11 21 24 24 27 25 26 19
50 47 50 51 48 48 49 54 51 54 59 61 59 55 34 16 11 18 10 10 17 21 19 11 13 14 17 11 36 39 30 22 24 47 42 34 30 42 21 24 23 25 24 36 26 40 20
51 46 49 53 51 51 47 47 48 52 54 61 59 54 32 7 7 8 7 6 6 10 14 9 7 10 25 19 31 32 26 27 41 45 37 28 23 24 24 27 30 36 38 37 34 20 31
53 48 47 53 50 49 45 44 48 50 52 57 63 51 30 10 5 9 4 2 3 6 14 2 5 17 13 20 28 28 26 30 47 47 24 33 16 37 51 46 33 25 35 32 24 15 16
52 50 49 52 50 49 48 44 45 48 48 52 58 50 34 13 5 8 4 5 12 6 3 7 12 16 21 14 25 27 22 9 33 33 34 15 18 36 38 37 33 18 27 29 8 19 11
50 52 50 51 54 50 49 43 43 45 38 43 48 47 31 28 7 5 8 5 5 6 5 9 6 14 12 11 21 21 13 10 19 43 38 30 14 31 31 31 26 26 27 26 12 18 16
47 52 53 53 55 52 51 46 48 42 27 32 36 39 33 11 10 16 9 10 7 4 4 3 5 4 3 14 10 27 14 7 5 34 32 17 15 29 35 37 31 24 8 13 11 19 12
44 50 55 54 54 54 53 53 46 46 34 25 26 28 26 18 2 9 10 7 5 4 4 4 7 5 13 8 28 15 26 13 6 17 6 10 30 34 32 34 30 8 20 15 6 9 8
40 47 53 55 56 56 56 54 54 48 42 36 28 19 18 12 8 3 5 1 6 7 16 10 6 7 14 13 8 13 10 15 14 13 18 7 10 7 5 5 15 26 25 15 6 2 8
38 43 49 54 59 59 57 57 56 53 51 40 27 14 11 9 8 14 14 6 5 12 3 12 8 8 10 8 8 12 11 9 9 9 7 8 8 7 3 21 16 17 26 9 9 7 8
35 39 44 50 55 56 60 60 61 57 53 41 19 10 15 9 10 4 4 4 18 10 15 8 10 18 8 4 9 1 12 13 7 12 6 5 5 5 9 5 13 24 31 5 13 11 14
33 37 42 45 53 59 60 65 65 63 54 40 16 8 15 19 7 7 4 12 6 4 2 9 15 10 7 10 9 6 3 8 10 5 4 8 8 2 5 6 7 7 13 4 5 4 3
28 34 41 41 48 60 65 66 67 66 58 40 16 10 9 16 9 12 3 7 3 2 4 8 3 7 13 10 6 8 4 5 7 5 7 8 12 12 17 14 0 7 7 5 3 7 9
29 32 39 45 48 53 61 68 66 67 62 38 9 8 14 12 12 4 7 3 8 4 4 6 4 4 6 7 4 4 3 7 2 5 2 7 7 9 10 14 18 10 8 6 5 5 6
30 33 35 41 53 54 60 67 68 61 60 37 9 5 17 7 2 2 7 7 3 5 3 3 4 5 7 9 8 4 5 5 6 3 5 6 8 8 4 4 7 10 12 18 7 9 1
31 32 35 41 48 57 58 65 67 54 53 41 19 9 11 2 1 5 7 9 2 2 5 4 3 3 3 8 5 8 6 4 4 1 4 8 7 8 5 6 6 11 17 15 3 6 9
29 33 36 41 43 52 59 62 62 47 42 26 11 6 2 1 4 4 9 7 8 4 1 1 5 4 10 8 3 9 10 5 2 4 8 1 5 4 3 6 5 10 21 23 16 7 9
29 34 37 39 42 50 55 55 55 43 33 16 7 4 5 4 3 2 4 2 7 8 5 6 6 8 6 6 7 7 10 10 5 5 3 4 3 3 4 2 4 7 13 26 26 22 12
29 33 36 42 48 37 43 52 55 41 27 13 11 9 13 10 8 8 4 4 3 3 5 7 7 10 9 3 4 9 15 14 12 16 11 6 5 3 5 5 11 18 22 22 29 31 33
28 29 35 39 37 31 36 45 52 46 32 14 14 11 8 3 4 9 3 4 2 3 2 6 2 6 8 4 3 4 6 6 2 11 17 11 9 5 3 1 10 19 38 38 30 22 31
20 27 33 34 32 31 34 41 42 48 39 20 17 10 7 4 7 6 8 6 5 2 4 6 4 5 5 11 14 12 8 7 8 6 11 12 11 6 1 4 9 2 5 4 37 25 30
16 22 27 33 33 31 25 35 35 39 39 21 26 10 8 8 12 15 8 11 12 10 7 7 1 4 13 5 7 8 7 8 8 7 12 13 13 5 5 9 21 20 12 10 16 15 37
9 17 26 28 27 31 29 27 33 26 31 24 24 21 5 13 7 10 11 7 11 12 7 7 2 8 10 3 4 7 8 7 8 10 8 12 14 8 7 6 7 8 7 8 7 6 15
9 19 29 34 27 30 31 31 24 28 27 25 19 22 7 9 9 8 6 7 9 12 8 3 8 8 7 9 8 6 8 1 8 10 11 15 12 18 15 9 13 1 12 10 6 8 16
13 21 30 27 30 27 26 30 27 23 23 25 17 19 16 10 28 16 13 17 14 12 10 8 6 9 9 12 8 8 14 13 10 11 13 19 12 11 14 10 15 15 13 7 14 13 10
13 26 31 28 17 17 24 27 29 25 22 20 19 27 22 17 25 42 43 36 29 22 11 8 10 7 5 10 11 8 9 5 14 10 16 11 13 7 13 8 7 17 9 11 8 8 4
Wind_Direction_850mb
350 347 344 347 343 343 340 337 334 332 332 329 323 319 319 312 302 295 295 296 308 299 294 275 249 228 228 232 244 218 194 198 190 186 193 193 192 190 204 205 210 219 227 221 252 170 216
352 347 348 348 345 343 341 342 342 335 332 330 324 314 305 306 300 286 289 289 286 282 288 280 251 216 216 239 243 234 161 184 191 186 191 197 201 192 220 208 211 210 228 215 209 196 198
357 349 345 347 343 349 343 342 340 337 337 337 337 330 314 296 287 274 287 257 266 275 289 267 235 219 231 228 201 217 187 149 199 190 189 193 197 198 210 197 203 253 208 214 210 197 209
354 349 348 350 345 348 340 357 345 345 341 342 340 339 323 277 275 260 279 254 270 271 272 260 221 232 249 237 233 228 219 208 187 181 187 189 202 197 228 190 185 202 213 211 207 211 220
355 350 351 344 347 351 354 348 346 350 346 348 347 348 340 318 255 282 226 264 296 279 261 218 199 214 248 232 215 203 205 198 182 169 182 185 204 196 193 189 184 205 204 210 206 197 192
359 352 349 350 352 351 349 346 351 354 352 351 354 353 353 290 290 190 180 312 358 75 126 159 234 212 242 221 180 187 189 190 175 165 169 183 200 199 198 198 200 197 216 204 204 189 223
0 354 349 353 352 351 348 351 355 353 355 357 5 8 16 28 198 163 129 52 183 152 186 322 329 228 69 149 161 159 167 184 169 166 178 177 190 197 196 205 215 215 204 239 208 139 204
359 356 352 354 355 352 349 354 356 353 356 4 10 14 25 26 154 146 99 11 28 9 186 294 301 286 287 273 168 145 151 170 175 174 172 167 212 207 202 208 214 244 194 205 165 152 209
358 356 353 355 356 352 350 352 356 354 4 10 15 15 17 44 106 127 93 58 95 49 34 3 0 285 287 187 155 136 151 85 199 178 182 184 189 217 198 206 192 201 200 198 234 182 221
358 355 353 355 360 354 350 350 351 351 1 7 14 20 20 11 20 85 88 145 130 359 176 3 343 324 221 160 89 108 120 114 325 184 178 186 203 192 192 191 196 186 197 162 174 193 218
356 355 353 354 359 360 352 349 348 347 341 345 359 18 10 24 52 111 153 140 143 311 116 87 247 153 147 168 136 100 102 161 84 115 149 180 188 192 185 190 188 142 149 145 174 239 303
355 354 354 357 358 1 359 351 347 346 343 337 328 344 2 340 352 65 111 97 309 239 32 35 59 82 105 110 58 98 51 109 86 61 65 24 47 8 356 88 187 135 126 113 106 266 244
353 355 353 359 2 360 1 358 350 347 343 343 335 331 345 353 289 282 265 314 247 36 301 347 47 95 78 86 94 120 178 133 113 130 158 24 24 26 346 108 135 164 171 152 193 196 235
348 352 353 358 1 1 0 360 356 350 345 344 340 351 359 347 306 6 37 267 50 355 68 220 101 90 70 74 30 76 156 114 134 95 105 123 131 38 309 115 177 188 198 247 208 195 175
346 349 351 360 360 5 4 359 358 354 345 346 336 341 356 350 337 112 239 50 30 296 47 142 157 104 108 114 137 162 344 74 119 207 105 149 87 120 300 106 151 181 211 13 304 65 200
341 347 345 356 2 358 360 4 354 354 351 345 337 294 311 360 32 87 25 88 160 260 10 328 49 289 138 115 138 139 145 47 96 48 315 102 109 146 133 113 227 243 181 180 213 206 215
334 343 345 347 356 358 354 354 359 348 352 346 359 293 323 345 56 60 78 78 119 42 345 340 51 125 88 130 162 82 44 113 41 77 9 112 107 139 158 209 166 164 205 226 288 290 285
331 339 343 346 346 353 352 350 356 349 349 359 358 278 328 358 297 128 121 164 314 356 355 60 91 74 157 160 156 150 140 44 95 136 112 33 95 140 150 94 315 316 240 206 228 193 274
332 330 339 342 342 343 349 345 347 350 350 350 321 285 311 218 261 105 132 143 264 244 30 10 75 21 177 157 150 139 133 26 76 11 133 159 133 124 181 201 197 226 223 234 268 340 205
326 326 332 336 342 339 342 342 342 349 345 349 321 317 294 66 11 178 176 167 179 181 185 21 119 164 162 159 10 158 140 129 121 53 48 42 161 292 260 60 115 198 213 212 194 209 209
326 330 330 337 340 339 344 349 347 350 348 5 348 12 337 310 122 212 226 186 221 205 206 207 175 252 203 167 174 160 140 143 169 148 139 279 189 83 284 63 144 232 217 210 213 220 233
326 332 336 343 345 349 353 357 357 2 4 53 11 355 329 290 296 236 166 185 243 167 252 182 256 185 196 224 251 179 187 188 184 182 197 177 153 133 273 231 251 257 247 236 227 228 246
336 340 349 355 359 360 352 359 4 9 22 54 16 346 328 319 263 267 175 148 150 314 163 267 140 198 203 65 38 351 156 213 197 192 199 194 155 184 236 212 282 264 233 220 219 215 222
341 352 1 360 358 353 353 357 7 13 24 33 22 11 322 300 264 304 339 340 231 246 326 150 279 252 99 116 113 114 116 142 148 169 200 193 176 164 311 253 240 32 67 242 220 225 218
343 9 0 2 1 350 346 350 357 3 16 26 23 29 344 291 322 273 294 301 281 246 239 231 157 101 140 169 151 161 174 184 175 195 204 217 186 194 232 240 292 263 185 180 181 243 220
336 347 353 346 347 346 352 336 345 354 4 22 20 21 355 311 61 347 314 311 293 230 197 194 130 160 171 250 255 239 219 209 180 174 206 214 230 226 164 258 261 51 146 174 194 232 181
316 320 327 340 338 336 338 343 318 345 344 -0 11 14 16 291 306 309 300 301 315 300 289 112 171 177 203 215 227 243 256 240 213 202 184 194 211 225 228 254 282 74 148 168 220 104 114
315 314 327 341 333 337 350 356 343 332 334 334 329 353 1 297 287 266 261 268 280 266 279 69 195 199 193 227 223 196 250 202 249 214 185 188 197 206 222 229 263 138 144 229 108 115 127
320 320 327 340 344 353 346 336 342 348 333 328 331 330 330 292 266 281 276 253 245 256 284 276 334 303 287 237 222 220 213 219 231 229 196 219 214 203 220 223 109 186 233 151 131 120 150